Hourly Data Report for July 12, 2021

ALGONQUIN PARK EAST GATE
ONTARIO
Current Station Operator: ECCC - MSC

45°32'00.000" N
78°16'00.000" W
397.00 m
6080192
71581
TNK

Download Data

Hourly Data (July 2021)
Hourly Data Report for July 12, 2021
TIME
LST
Temp Definition
°C
Dew Point Definition
°C
Rel Hum Definition
%
Precip. Amount Definition
mm

Wind Dir Definition
10's deg

Wind Spd Definition
km/h
Visibility Definition
km
Stn Press Definition
kPa
Hmdx Definition


Wind Chill Definition


Weather Definition


00:00 12.7 11.9 95 0.0   0   97.29     LegendNANA
01:00 12.0 11.4 96 0.0   0   97.28     LegendNANA
02:00 11.6 11.1 96 0.0   0   97.31     LegendNANA
03:00 11.0 10.5 96 0.0   0   97.32     LegendNANA
04:00 10.3 9.8 97 0.0   0   97.37     LegendNANA
05:00 9.9 9.5 97 0.0   0   97.40     LegendNANA
06:00 11.0 10.6 97 0.0   0   97.42     LegendNANA
07:00 14.8 12.8 88 0.0   0   97.44     LegendNANA
08:00 20.2 15.9 76 0.0   0   97.49 25   LegendNANA
09:00 22.4 14.2 60 0.0 10 4   97.50 26   LegendNANA
10:00 23.3 13.4 53 0.0 12 12   97.51 26   LegendNANA
11:00 24.5 13.9 52 0.0 12 11   97.53 28   LegendNANA
12:00 25.1 13.6 49 0.0 10 8   97.53 28   LegendNANA
13:00 25.8 13.7 47 0.0 12 11   97.53 29   LegendNANA
14:00 25.8 13.0 45 0.0 8 5   97.51 29   LegendNANA
15:00 25.4 13.2 47 0.0 12 11   97.49 28   LegendNANA
16:00 25.6 14.7 51 0.0 12 12   97.45 29   LegendNANA
17:00 26.0 14.7 50 0.0 10 6   97.42 30   LegendNANA
18:00 24.8 14.9 54 0.0 11 8   97.41 29   LegendNANA
19:00 23.8 15.8 61 0.0 8 3   97.44 28   LegendNANA
20:00 20.0 16.1 78 0.0   0   97.43 25   LegendNANA
21:00 18.3 16.2 88 0.0   0   97.50     LegendNANA
22:00 17.8 16.2 90 0.0   0   97.46     LegendNANA
23:00 17.2 15.8 92 0.0   0   97.44     LegendNANA

Notes on Data Quality.

Legend

  • E = Estimated
  • M = Missing
  • NA = Not Available*
  • [empty] = Indicates an unobserved value
Date modified: